TimeCDT,TemperatureF,Dew PointF,Humidity,Sea Level PressureIn,VisibilityMPH,Wind Direction,Wind SpeedMPH,Gust SpeedMPH,PrecipitationIn,Events,Conditions,WindDirDegrees,DateUTC
12:52 AM,71.1,60.1,68,29.90,10.0,SSW,6.9,-,N/A,,Clear,200,2013-09-15 05:52:00
1:52 AM,70.0,60.1,71,29.89,10.0,SSW,5.8,-,N/A,,Clear,200,2013-09-15 06:52:00
2:52 AM,70.0,60.1,71,29.89,10.0,SSW,5.8,-,N/A,,Clear,210,2013-09-15 07:52:00
3:52 AM,70.0,61.0,73,29.88,10.0,SW,5.8,-,N/A,,Clear,220,2013-09-15 08:52:00
4:52 AM,69.1,62.1,78,29.88,10.0,SW,6.9,-,N/A,,Scattered Clouds,220,2013-09-15 09:52:00
5:52 AM,71.1,61.0,70,29.88,10.0,SW,10.4,-,N/A,,Scattered Clouds,220,2013-09-15 10:52:00
6:52 AM,72.0,62.1,71,29.89,10.0,SW,9.2,-,N/A,,Partly Cloudy,220,2013-09-15 11:52:00
7:52 AM,72.0,61.0,68,29.92,10.0,West,6.9,-,N/A,,Mostly Cloudy,260,2013-09-15 12:52:00
8:52 AM,73.0,62.1,68,29.93,10.0,WSW,4.6,-,N/A,,Partly Cloudy,240,2013-09-15 13:52:00
9:52 AM,75.0,63.0,66,29.96,10.0,West,3.5,-,N/A,,Overcast,280,2013-09-15 14:52:00
10:52 AM,75.9,64.0,67,29.96,10.0,SW,5.8,-,N/A,,Partly Cloudy,230,2013-09-15 15:52:00
11:52 AM,81.0,64.9,58,29.96,10.0,Variable,3.5,-,N/A,,Partly Cloudy,0,2013-09-15 16:52:00
12:52 PM,81.0,64.9,58,29.97,10.0,Calm,Calm,-,N/A,,Partly Cloudy,0,2013-09-15 17:52:00
1:52 PM,82.0,66.0,58,29.96,10.0,ENE,5.8,-,N/A,,Overcast,70,2013-09-15 18:52:00
2:52 PM,81.0,68.0,65,29.97,10.0,North,11.5,-,N/A,,Mostly Cloudy,10,2013-09-15 19:52:00
3:52 PM,75.9,66.0,71,30.00,10.0,NNE,12.7,20.7,N/A,,Partly Cloudy,20,2013-09-15 20:52:00
4:52 PM,75.9,64.9,69,30.01,10.0,NE,13.8,21.9,N/A,,Scattered Clouds,40,2013-09-15 21:52:00
5:52 PM,72.0,63.0,73,30.04,10.0,NNE,13.8,-,N/A,,Scattered Clouds,30,2013-09-15 22:52:00
6:05 PM,71.6,62.6,73,30.06,10.0,NE,12.7,21.9,N/A,,Mostly Cloudy,40,2013-09-15 23:05:00
6:52 PM,70.0,63.0,78,30.06,6.0,NE,17.3,24.2,N/A,,Haze,50,2013-09-15 23:52:00
7:31 PM,69.8,62.6,78,30.09,8.0,NE,16.1,21.9,N/A,,Overcast,40,2013-09-16 00:31:00
7:52 PM,68.0,61.0,78,30.08,10.0,NE,12.7,23.0,N/A,,Overcast,40,2013-09-16 00:52:00
8:13 PM,68.0,60.8,78,30.10,10.0,NE,18.4,25.3,0.00,Rain,Light Rain,50,2013-09-16 01:13:00
8:37 PM,64.4,62.6,94,30.11,5.0,NNE,16.1,24.2,0.03,Rain,Rain,30,2013-09-16 01:37:00
8:52 PM,64.0,61.0,90,30.10,7.0,NNE,15.0,23.0,0.06,Rain,Light Rain,30,2013-09-16 01:52:00
9:01 PM,64.4,62.6,94,30.12,8.0,NE,13.8,20.7,0.01,Rain-Thunderstorm,Light Thunderstorms and Rain,40,2013-09-16 02:01:00
9:34 PM,62.6,60.8,94,30.13,10.0,ENE,15.0,24.2,0.01,Thunderstorm,Thunderstorm,60,2013-09-16 02:34:00
9:52 PM,62.1,61.0,96,30.12,7.0,NNE,17.3,23.0,0.01,Rain-Thunderstorm,Light Thunderstorms and Rain,30,2013-09-16 02:52:00
10:08 PM,60.8,60.8,100,30.15,7.0,NE,11.5,-,0.00,Rain-Thunderstorm,Light Thunderstorms and Rain,50,2013-09-16 03:08:00
10:17 PM,60.8,60.8,100,30.16,10.0,NE,9.2,-,0.00,Thunderstorm,Thunderstorm,40,2013-09-16 03:17:00
10:38 PM,60.8,60.8,100,30.15,10.0,NE,9.2,-,0.01,Rain-Thunderstorm,Light Rain,40,2013-09-16 03:38:00
10:49 PM,60.8,60.8,100,30.16,8.0,NNE,10.4,-,0.01,Rain-Thunderstorm,Light Thunderstorms and Rain,30,2013-09-16 03:49:00
10:52 PM,61.0,60.1,97,30.14,6.0,NNE,11.5,-,0.02,Rain-Thunderstorm,Light Thunderstorms and Rain,30,2013-09-16 03:52:00
10:59 PM,60.8,60.8,100,30.15,2.5,NE,17.3,24.2,0.07,Rain-Thunderstorm,Heavy Thunderstorms and Rain,50,2013-09-16 03:59:00
11:13 PM,60.8,60.8,100,30.16,1.8,NNE,9.2,23.0,0.25,Rain-Thunderstorm,Heavy Thunderstorms and Rain,30,2013-09-16 04:13:00
11:20 PM,60.8,60.8,100,30.17,1.2,NE,4.6,-,0.42,Rain-Thunderstorm,Heavy Thunderstorms and Rain,40,2013-09-16 04:20:00
11:34 PM,60.8,60.8,100,30.18,2.5,NE,13.8,-,0.47,Rain-Thunderstorm,Thunderstorms and Rain,40,2013-09-16 04:34:00
11:39 PM,60.8,60.8,100,30.17,3.0,NE,12.7,-,0.48,Rain-Thunderstorm,Light Thunderstorms and Rain,50,2013-09-16 04:39:00
11:48 PM,60.8,60.8,100,30.18,2.5,NNE,10.4,-,0.53,Rain-Thunderstorm,Heavy Thunderstorms and Rain,30,2013-09-16 04:48:00
11:52 PM,61.0,60.1,97,30.17,2.5,NNE,6.9,-,0.54,Rain-Thunderstorm,Heavy Thunderstorms and Rain,20,2013-09-16 04:52:00